Regional Weather Roundup
Issued by NWS Memphis, TN

Home | Current Version | Previous Version | Text Only | Print | Product List | Glossary On
Versions: 1 2 3 4 5 6 7 8 9 10 11 12 13 14 15 16 17 18 19 20 21 22 23 24 25 26 27 28 29 30 31 32 33 34 35 36 37 38 39 40 41 42 43 44 45 46 47 48 49 50
000
ASUS44 KMEG 291210
RWRMEG
MEMPHIS CWA HOURLY WEATHER ROUNDUP
NATIONAL WEATHER SERVICE MEMPHIS TN
700 AM CDT SUN MAR 29 2015

...WEST TENNESSEE...

CITY           SKY/WX    TMP DP  RH WIND       PRES   REMARKS
MEMPHIS INTL   PTCLDY    38  23  55 SE8       30.25R WCI  32
6HR MIN TEMP:  35; 6HR MAX TEMP:  38;

NWS MEMPHIS      N/A     35 N/A N/A MISG        N/A
JACKSON        CLEAR     33  19  56 VRB5      30.29R WCI  29
6HR MIN TEMP:  24; 6HR MAX TEMP:  33;

LEXINGTON      CLEAR     27  18  69 SE3       30.30R
SAVANNAH       CLEAR     27  19  74 CALM      30.31S
DYERSBURG      CLEAR     34  14  44 SE8       30.29R WCI  27
6HR MIN TEMP:  28; 6HR MAX TEMP:  34;

UNION CITY     CLEAR     28  19  69 SE6       30.28R WCI  22
PARIS          CLEAR     27  14  59 SE7       30.28S WCI  19


...EASTERN ARKANSAS...

CITY           SKY/WX    TMP DP  RH WIND       PRES   REMARKS
JONESBORO      CLEAR     29  29 100 E3        30.24S
6HR MIN TEMP:  28; 6HR MAX TEMP:  32;

WEST MEMPHIS   CLEAR     35  29  78 SE9       30.25R WCI  28
6HR MIN TEMP:  34; 6HR MAX TEMP:  37;

BATESVILLE     CLEAR     34  27  75 SE5       30.20F WCI  30
6HR MIN TEMP:  32; 6HR MAX TEMP:  34;

NEWPORT        CLEAR     35  32  89 SE5       30.24S WCI  31
6HR MIN TEMP:  34; 6HR MAX TEMP:  37;

BLYTHEVILLE    CLEAR     35  29  78 SE5       30.27R WCI  31
6HR MIN TEMP:  31; 6HR MAX TEMP:  36;

SEARCY         CLEAR     32  30  92 CALM      30.23F
6HR MIN TEMP:  31; 6HR MAX TEMP:  35;

STUTTGART      CLOUDY    41  30  65 SE12      30.21S
6HR MIN TEMP:  39; 6HR MAX TEMP:  41;

PINE BLUFF     CLOUDY    41  35  79 SE12      30.20S
6HR MIN TEMP:  38; 6HR MAX TEMP:  41;

MONTICELLO     CLOUDY    44  34  67 SE8       30.20S
6HR MIN TEMP:  40; 6HR MAX TEMP:  44;



...NORTH MISSISSIPPI...

CITY           SKY/WX    TMP DP  RH WIND       PRES   REMARKS
TUPELO         CLOUDY    38  28  67 S8        30.30S WCI  32
6HR MIN TEMP:  34; 6HR MAX TEMP:  39;

OXFORD         PTCLDY    37  27  65 SE8       30.29R WCI  31
OLIVE BRANCH   PTCLDY    32  30  93 CALM      30.25S
TUNICA         MOCLDY    36  32  87 SE6       30.26S WCI  31
CLARKSDALE     CLOUDY    41  32  70 E9        30.26R
CORINTH        CLEAR     30  27  86 SE5       30.30S WCI  25
GREENWOOD      CLOUDY    45  28  51 SE8       30.27R
6HR MIN TEMP:  39; 6HR MAX TEMP:  45;

COLUMBUS       MOCLDY    41  32  70 E6        30.32R
6HR MIN TEMP:  35; 6HR MAX TEMP:  41;

STARKVILLE     CLOUDY    41  32  70 SE6       30.31R
GOLDEN TRIANGL MOCLDY    43  28  56 SE12      30.30R


...SOUTHEAST MISSOURI...

CITY           SKY/WX    TMP DP  RH WIND       PRES   REMARKS
WEST PLAINS    CLEAR     32  26  78 S7        30.16S WCI  26
6HR MIN TEMP:  31; 6HR MAX TEMP:  32;

POPLAR BLUFF   CLEAR     30  28  92 CALM      30.24S FOG
6HR MIN TEMP:  30; 6HR MAX TEMP:  34;

CAPE GIRARDEAU CLEAR     34  22  61 SE10      30.26R WCI  26
6HR MIN TEMP:  30; 6HR MAX TEMP:  34;



...NORTHWEST ALABAMA...

CITY           SKY/WX    TMP DP  RH WIND       PRES   REMARKS
MUSCLE SHOALS  CLEAR     29  21  72 SE6       30.35R WCI  23
6HR MIN TEMP:  28; 6HR MAX TEMP:  32;



...MIDDLE TENNESSEE...

CITY           SKY/WX    TMP DP  RH WIND       PRES   REMARKS
NASHVILLE      PTCLDY    28  18  66 SE6       30.34S WCI  22
6HR MIN TEMP:  24; 6HR MAX TEMP:  32;

CLARKSVILLE    PTCLDY    23  18  81 SE6       30.31S WCI  16
6HR MIN TEMP:  22; 6HR MAX TEMP:  31;

COLUMBIA       CLEAR     21  21 100 CALM      30.30R


...WESTERN KENTUCKY...

CITY           SKY/WX    TMP DP  RH WIND       PRES   REMARKS
PADUCAH        CLEAR     31  19  61 SE7       30.27R WCI  24
6HR MIN TEMP:  30; 6HR MAX TEMP:  33;

FORT CAMPBELL  PTCLDY    28  17  63 SE7       30.30R WCI  21
6HR MIN TEMP:  28; 6HR MAX TEMP:  32;



...CENTRAL ARKANSAS...

CITY           SKY/WX    TMP DP  RH WIND       PRES   REMARKS
LITTLE ROCK    MOCLDY    41  33  73 SE7       30.19F
6HR MIN TEMP:  38; 6HR MAX TEMP:  41;



SKY/WX REPORTED AS FAIR MEANS FEW OR NO CLOUDS BELOW
12 THOUSAND FEET.




USA.gov is the U.S. government's official web portal to all federal, state and local government web resources and services.